Location: Antin
(43.3330°N, 0.2804°E)
Time: 06:55:55
(UTC+00:00)

SME Rocket - Pass Details

Date: 16 December 2023
Orbit: 550 x 2645 km, 99.9° (Epoch: 04 March)

Event Time Altitude Azimuth Distance (km) Brightness Sun altitude
Rises 19:14:11 0° 180° (S) 3,655 7.1 -29.9°
Reaches altitude 10° 19:16:17 10° 185° (S) 2,911 6.6 -30.3°
Maximum altitude 19:22:55 57° 263° (W) 1,666 5.3 -31.5°
Drops below altitude 10° 19:33:13 10° 340° (NNW) 4,445 7.6 -33.4°
Sets 19:37:11 0° 345° (NNW) 5,726 8.1 -34.1°
